Location: Alicia E Cortez Elementary School
(34.0220°N, 117.6703°W)
Time: 02:43:08
(UTC+00:00)

Daily predictions for brighter satellites

Satellite Brightness Start Highest point End
(mag) Time Altitude Azimuth Time Altitude Azimuth Time Altitude Azimuth
Cosmos 1328 3.7 01:26:38 10° N 01:30:34 66° E 01:34:26 10° SSE
NOSS 3-2 (C) 3.5 01:25:58 10° S 01:31:22 53° ESE 01:37:19 10° NE
OAO 2 Rocket 4.4 01:27:08 10° W 01:32:05 46° SSW 01:37:07 10° SE
Cosmos 1833 Rocket 3.2 01:27:23 10° N 01:32:38 39° ENE 01:37:51 10° SE
BREEZE M DEB (TANK) 4.0 01:32:26 10° N 01:34:29 17° NE 01:38:00 10° E
Unknown 2.8 01:32:22 10° NW 01:35:28 68° NE 01:38:36 10° SE
Cosmos 1726 3.6 01:36:52 10° SSW 01:40:18 40° W 01:43:46 10° N
COSMO-SKYMED 1 2.6 01:37:35 10° NNE 01:41:52 57° E 01:46:07 10° S
Envisat 3.1 01:38:07 10° SSE 01:43:01 52° ENE 01:47:56 10° N
CORIOLIS 4.3 01:38:12 10° S 01:43:33 81° WSW 01:48:56 10° NNW
COBE Rocket 4.0 01:41:07 10° N 01:46:13 90° WSW 01:51:10 10° SSW
NOAA 12 4.1 01:41:37 10° SSE 01:46:52 77° ENE 01:52:11 10° N
Cosmos 2369 Rocket 3.8 01:49:19 10° ESE 01:51:21 12° E 01:51:45 12° E
ATLAS 3B R/B 2.8 01:46:20 10° S 01:52:53 52° ESE 01:59:20 10° NE
Cosmos 1076 Rocket 4.4 01:50:05 10° NNE 01:53:48 27° ENE 01:57:28 10° SE
Okean-O 3.0 01:51:02 10° S 01:55:26 71° WSW 01:59:52 10° NNW
Shenzhou-11 Module 1.8 01:55:26 10° NW 01:58:11 58° NNE 01:59:50 20° ESE
CENTAUR R/B 2.4 01:52:45 10° SSW 01:58:16 60° ESE 02:04:39 10° NE
Delta 2 Rocket 3.0 01:54:36 10° W 01:58:20 65° N 02:00:40 19° ENE
Cosmos 1703 4.0 01:54:56 10° NNW 01:58:46 57° W 02:02:35 10° S
EO 1 Delta rocket 4.0 01:58:54 10° SSE 02:03:19 49° ENE 02:08:04 10° N
USA 215 4.2 01:57:46 10° SSE 02:04:03 50° SW 02:10:24 10° NW
YAOGAN 6 2.6 02:01:52 10° SSE 02:05:26 57° ENE 02:09:00 10° N
Cosmos 1943 Rocket 3.4 02:01:50 10° SE 02:05:45 20° E 02:07:12 18° E
Cosmos 2082 Rocket 2.3 02:03:11 10° N 02:08:46 54° ENE 02:14:16 10° SE
Cosmos 1812 Rocket 3.6 02:06:43 10° S 02:11:08 84° W 02:15:36 10° N
Unknown 3.8 02:08:18 10° NNW 02:11:29 36° NE 02:12:34 28° E
CZ-3 Stage 3 1.4 02:16:08 10° W 02:21:59 51° S 02:22:53 34° SE
YAOGAN 1 2.4 02:17:57 10° SSE 02:22:14 71° ENE 02:26:33 10° N
DMSP B5D1-3 4.5 02:17:18 10° NNE 02:22:25 65° ESE 02:27:31 10° S
CZ-4 R/B 1.5 02:18:37 10° S 02:22:48 83° WSW 02:27:03 10° NNW
Ariane Rocket 3.6 02:23:20 22° ESE 02:25:46 34° ENE 02:30:21 10° N
Cosmos 468 Rocket 3.9 02:22:39 10° SSW 02:27:57 82° ESE 02:33:12 10° NNE
FALCON 9 DEB 3.4 02:25:55 10° NNW 02:29:17 46° NE 02:29:27 45° NE
In-Cosmos 22 Rocket 4.4 02:25:11 10° N 02:30:26 45° ENE 02:35:47 10° SSE
Cosmos 1459 Rocket 4.1 02:26:21 10° N 02:32:28 53° E 02:38:38 10° SSE
SEDSat Delta rocket 3.9 02:29:04 10° SW 02:34:09 43° SSE 02:35:38 33° ESE
OAO 3 Rocket 4.4 02:30:25 10° W 02:34:56 37° SSW 02:37:54 19° SSE
Cosmos 1461 4.1 02:32:54 10° NW 02:36:52 43° WSW 02:40:57 10° S
Meteor 2-1 Rocket 4.1 02:33:27 10° S 02:38:56 90° E 02:44:31 10° N
Lacrosse 5 1.7 02:34:38 10° NW 02:39:43 83° NE 02:42:07 32° SE
Cosmos-2242 2.9 02:36:29 10° S 02:40:49 70° E 02:45:08 10° NNE
Falcon 9 debris 3.1 02:37:43 10° NW 02:41:00 70° NNE 02:41:00 70° NNE
Cosmos 841 Rocket 3.7 02:39:04 10° S 02:44:02 47° ESE 02:44:45 44° ENE
Cosmos 990 Rocket 4.2 02:39:11 10° N 02:44:10 45° ENE 02:44:27 44° E
CSL-04 Rocket 4.0 02:40:38 10° S 02:46:08 68° WSW 02:51:36 10° NNW
Cosmos 1937 Rocket 4.4 02:42:52 10° N 02:46:18 31° NE 02:46:18 31° NE
Cosmos 2061 Rocket 4.1 02:42:17 10° N 02:48:18 50° E 02:51:50 24° SE
Unknown 3.9 02:46:02 10° NW 02:48:40 44° NNW 02:48:40 44° NNW
Cosmos 192 4.1 02:46:22 10° S 02:51:14 78° ESE 02:53:34 31° NNE
Cosmos 1570 Rocket 4.0 02:46:41 10° SSW 02:52:00 86° WNW 02:57:23 10° NNE
Meteosat 1 Rocket2 3.9 02:48:44 10° WSW 02:52:07 30° S 02:52:11 30° S
Cosmos 540 Rocket 4.2 02:50:27 10° S 02:53:41 35° SSE 02:53:41 35° SSE
Cosmos 2084 Rocket 3.5 02:51:35 10° NNW 02:56:00 80° WSW 02:56:38 63° S
Cosmos 1763 Rocket 3.9 02:56:45 10° SSW 03:01:59 62° WNW 03:07:14 10° N
Cosmos 2173 Rocket 3.9 02:57:29 10° N 03:03:42 84° W 03:09:48 10° S
CZ-2D R/B 3.8 03:03:41 49° SW 03:04:21 58° W 03:08:10 10° NNW
SJ 16-02 3.2 03:00:15 10° N 03:01:38 19° N 03:01:38 19° N
NOAA 11 4.4 03:04:04 10° S 03:09:29 70° WSW 03:14:54 10° NNW
Gbstr 26 Del rocket 4.5 03:03:08 10° NW 03:09:36 65° SW 03:13:29 30° SSE
H-2A R/B 4.3 01:34:45 10° WSW 03:09:38 77° S 03:15:08 42° E
Cosmos 2208 Rocket 4.2 03:04:47 10° SSW 03:09:57 69° WNW 03:12:54 26° N
OAO 3 Copernicus 4.2 03:05:55 10° W 03:10:51 83° WSW 03:10:51 83° WSW
ADEOS Rocket 4.2 03:04:00 10° NNE 03:14:19 31° SSE 03:17:40 10° S
Cosmos 2123 Rocket 3.8 03:05:12 10° S 03:11:29 82° E 03:17:46 10° N
Cosmos 1802 Rocket 4.1 03:12:58 10° N 03:19:23 77° W 03:25:41 10° S
Cosmos 44 Rocket 3.7 03:16:01 10° SW 03:20:58 62° WNW 03:21:01 62° WNW
Cosmos 1939 Rocket 4.2 03:22:08 39° W 03:22:08 39° W 03:25:50 10° NNW
Cosmos 1725 Rocket 4.1 03:22:21 10° N 03:27:35 63° N 03:27:35 63° N
Cosmos 2344 3.4 03:21:34 10° SSW 03:29:00 67° SE 03:29:00 67° SE
Cosmos 1814 Rocket 4.4 03:25:38 10° SSW 03:30:33 60° W 03:30:33 60° W
Cosmos 2369 Rocket 2.6 03:29:00 10° SSW 03:33:39 58° SW 03:33:39 58° SW
Cosmos 1898 Rocket 4.5 03:36:42 10° NNW 03:41:44 45° WSW 03:41:44 45° WSW
ATLAS 3B R/B 4.4 03:38:10 10° WSW 03:43:47 27° NW 03:48:57 12° N
Cosmos 1943 Rocket 3.1 03:43:48 10° SW 03:48:50 44° WNW 03:48:50 44° WNW
CENTAUR R/B 4.5 03:44:52 10° W 03:49:29 22° NW 03:54:32 10° N
NOSS 3-2 (C) 4.4 11:00:27 64° ESE 11:00:27 64° ESE 11:07:45 10° SE
Milstar 3 3.8 11:13:00 38° SSE 11:13:00 38° SSE 11:18:43 10° E
ATLAS 3B R/B 3.0 11:18:44 58° NE 11:19:14 60° ENE 11:26:04 10° SE
CENTAUR R/B 3.2 11:22:44 49° NNW 11:25:26 78° ENE 11:34:11 10° SE
SL-16 R/B 3.0 11:28:34 46° NE 11:28:34 46° NE 11:32:35 10° NNE
Cosmos 2278 Rocket 4.4 11:45:38 13° S 11:45:38 13° S 11:46:14 10° S
Cosmos 2327 Rocket 4.4 11:40:42 74° SSE 11:41:17 84° E 11:47:27 10° N
Cosmos 1892 Rocket 4.5 11:47:43 46° ENE 11:47:43 46° ENE 11:51:18 10° NNE
Cosmos 2154 Rocket 4.0 11:43:30 10° S 11:49:41 80° E 11:55:54 10° N
ATLAS 2AS CENTAUR R/B 4.4 11:52:30 22° NNW 11:52:30 22° NNW 11:57:19 10° N
Cosmos 1610 Rocket 4.4 11:48:53 29° S 11:52:20 88° W 11:58:43 10° N
Cosmos 1437 Rocket 4.3 11:55:17 30° NE 11:55:17 30° NE 11:57:31 10° NNE
